Wetbulb
60.31 60.10 59.49 60.06 60.47 60.29 60.02 59.73 59.35 58.89 58.68 58.58 58.75 59.20 59.99 59.87 57.74 48.11 45.22 52.29 61.24 66.33 62.34 49.56 48.68 47.75 47.30 45.70 46.61 45.60 38.11 34.84 36.18 36.85 39.37 42.48 41.28 43.75 44.75 43.12 43.10 43.78 43.55 44.31 44.49
59.80 59.52 59.48 59.80 60.26 59.73 59.71 59.05 58.55 58.08 57.93 58.00 58.28 59.00 59.70 59.12 46.56 45.13 55.83 63.02 63.91 64.52 49.79 47.43 46.21 46.05 43.23 43.57 43.61 41.28 37.15 37.43 40.30 40.87 40.33 41.69 42.08 42.38 42.02 41.66 41.40 42.19 43.86 44.04 43.70
59.51 59.28 59.45 59.83 59.96 59.40 59.34 59.22 58.47 58.07 57.70 58.37 59.34 59.79 59.61 56.06 43.28 42.95 60.70 61.93 62.73 55.50 51.56 48.54 46.76 45.47 42.13 42.79 41.11 41.90 37.98 40.45 41.68 42.57 43.12 41.60 41.10 42.59 41.03 39.51 42.17 41.49 42.97 43.57 42.47
59.71 58.94 59.30 59.80 59.78 59.50 58.86 58.85 59.24 59.20 59.46 59.65 59.76 59.75 59.29 47.76 37.13 45.07 60.04 59.87 60.00 51.22 48.65 46.26 44.58 42.06 40.04 39.48 40.91 39.13 41.31 42.20 43.21 43.27 42.20 40.71 42.26 40.94 40.72 41.88 44.02 44.07 44.41 42.88 41.71
59.01 58.77 59.16 59.48 59.51 59.20 58.89 58.57 59.01 58.76 58.41 58.72 59.54 59.35 49.28 42.31 41.19 47.55 56.81 53.90 51.23 48.70 45.42 45.08 42.35 41.02 38.23 39.30 40.30 39.76 40.84 42.77 43.34 42.81 42.74 42.85 41.41 41.58 40.96 42.48 43.53 43.48 42.77 41.85 41.20
59.71 59.34 59.13 59.18 59.21 59.10 59.05 59.19 58.78 58.34 57.92 58.56 59.35 57.12 44.75 39.17 45.46 47.65 47.46 49.32 49.09 47.47 45.19 44.97 43.36 42.32 40.14 39.51 38.91 40.42 40.86 41.25 43.11 42.90 43.17 41.55 41.10 41.76 41.84 42.63 42.37 42.15 41.46 41.34 40.96
59.65 59.19 58.97 58.98 58.98 58.79 58.89 59.15 58.78 58.20 57.94 58.50 59.17 47.17 44.18 42.18 46.55 47.61 47.75 47.08 47.63 48.39 44.60 45.06 45.31 43.23 41.58 39.21 40.42 39.65 37.31 37.31 39.68 42.04 41.81 42.08 37.26 38.14 41.71 42.19 41.48 41.56 41.42 41.10 40.98
59.36 58.97 58.85 58.80 58.75 58.48 58.46 58.68 58.24 57.52 57.58 58.35 58.48 45.24 40.56 47.28 47.05 47.29 47.12 46.52 47.70 48.52 47.28 45.72 45.20 41.89 40.93 41.10 37.85 34.76 34.58 32.20 37.12 41.05 41.11 40.86 34.30 38.87 40.49 40.94 40.87 41.27 41.36 41.01 41.15
58.95 58.67 58.62 58.54 58.58 58.05 57.67 58.30 58.16 57.17 57.72 55.32 46.67 43.73 39.38 51.56 45.93 45.88 45.85 45.03 45.89 46.70 45.93 46.04 43.33 39.01 38.68 35.31 33.28 32.22 30.16 30.51 33.08 38.82 39.98 39.16 35.26 39.00 39.70 39.69 39.71 40.42 41.14 40.99 40.80
58.38 58.13 58.18 58.17 58.22 57.25 56.34 57.22 57.27 53.20 50.06 47.86 46.42 42.87 44.10 41.94 44.82 46.37 45.34 46.06 43.93 43.66 44.29 41.36 37.87 35.41 33.61 33.15 28.92 29.68 29.21 29.74 29.47 34.97 36.97 35.47 35.45 38.73 39.58 38.75 39.08 39.41 39.94 40.33 40.39
58.11 57.75 57.89 57.97 57.95 55.57 50.84 45.10 44.08 44.25 44.45 39.98 39.71 40.30 42.16 45.61 45.89 46.30 45.03 43.90 43.50 40.74 36.42 37.91 34.40 31.25 32.00 32.18 32.31 31.21 29.34 28.61 30.73 34.51 33.86 31.93 31.98 35.48 36.58 35.96 36.57 37.62 37.77 39.15 39.95
57.71 57.34 57.57 57.59 57.44 54.37 48.35 43.98 41.84 42.80 39.64 42.36 42.63 42.52 43.48 44.00 42.99 45.32 45.43 40.56 39.85 35.32 36.83 36.09 32.48 33.84 35.12 34.15 32.29 31.62 29.51 29.18 32.04 34.03 33.62 31.21 31.81 35.02 34.79 36.36 36.57 36.97 37.28 38.05 38.83
57.31 56.62 57.32 56.77 55.65 50.38 45.61 44.53 47.71 46.29 39.97 41.62 42.76 42.48 42.24 43.73 40.28 42.58 42.85 39.61 36.78 35.07 34.03 33.15 34.68 36.21 34.74 33.24 32.04 31.35 29.58 29.29 29.86 31.57 32.05 30.17 30.71 33.07 36.31 36.80 37.09 37.45 38.01 38.47 39.14
56.95 56.99 57.02 55.60 51.33 47.41 44.57 47.52 47.76 47.00 36.59 38.61 41.26 43.53 43.67 42.45 39.86 44.48 42.22 39.94 37.79 33.69 34.34 34.14 35.42 34.20 33.25 32.03 31.61 30.10 32.04 31.35 30.06 29.37 27.36 31.21 27.29 31.11 33.00 34.40 35.75 36.52 36.63 37.89 38.48
56.52 56.76 56.55 53.78 47.92 45.28 46.34 47.94 47.02 44.95 27.44 38.95 41.39 46.72 43.88 40.79 40.27 42.69 41.77 40.17 35.44 34.79 35.37 34.20 32.79 32.60 32.84 32.49 32.43 32.83 32.92 31.08 31.24 28.85 27.90 29.27 27.28 31.10 31.49 32.98 35.35 36.96 36.32 37.00 37.73
56.19 56.24 54.68 50.04 47.50 46.19 47.67 47.13 46.38 37.65 26.64 36.50 40.97 40.02 39.30 40.18 40.93 41.85 39.95 41.55 38.91 36.10 35.80 34.01 36.15 34.24 33.53 33.74 33.19 34.49 31.67 31.90 30.60 29.34 25.27 27.28 27.06 29.72 30.78 33.17 35.02 36.24 36.76 36.94 36.67
55.89 55.57 52.02 49.93 45.95 47.27 47.95 46.71 37.88 31.77 37.91 35.67 36.34 38.66 36.30 36.53 38.04 37.38 35.47 34.11 34.09 32.55 31.23 33.93 33.85 33.84 34.19 32.73 34.01 32.89 30.28 26.84 25.05 24.29 24.94 27.19 26.18 30.74 33.70 34.37 35.51 35.74 36.29 36.91 36.42
55.14 54.16 52.13 49.97 47.11 47.93 46.89 42.09 31.77 34.64 34.54 38.08 37.20 36.81 34.16 35.36 35.18 37.13 33.96 32.75 32.03 33.10 30.00 29.10 29.18 32.51 33.42 32.56 31.50 30.13 29.79 26.22 21.83 21.16 23.07 25.83 24.52 31.50 33.89 34.57 35.60 35.13 35.48 35.72 36.19
53.75 50.36 50.52 49.79 48.01 47.35 44.83 34.38 34.31 34.34 37.68 36.19 36.39 33.23 32.85 35.04 33.48 34.76 32.27 32.29 32.63 34.37 31.46 29.09 30.90 33.61 32.57 32.50 33.71 30.18 28.33 30.31 26.47 22.97 21.58 24.87 27.92 32.88 32.75 33.48 34.09 34.33 34.87 35.08 35.36
48.14 47.45 49.31 48.75 47.70 45.13 41.08 37.49 35.84 37.84 37.90 36.51 33.32 34.23 30.99 32.17 32.59 32.56 32.13 34.07 32.97 34.36 33.80 31.97 29.34 32.70 32.47 33.03 32.25 30.86 31.98 27.16 26.41 22.10 20.04 23.74 23.99 29.05 31.98 33.47 33.39 33.65 33.95 34.82 34.60
46.80 44.29 48.98 48.43 46.66 43.06 36.98 35.78 36.59 38.37 38.46 36.01 34.53 33.06 33.03 32.19 32.13 31.76 33.17 34.74 34.66 32.90 32.72 31.74 31.44 31.24 32.24 30.58 29.38 28.16 27.24 27.29 28.00 25.06 21.99 19.78 26.09 31.94 33.10 34.53 34.03 34.29 34.61 34.01 34.04
44.34 38.21 48.61 48.20 41.56 35.67 35.60 36.32 39.84 36.15 37.01 37.13 35.26 35.81 34.30 33.67 31.64 31.46 32.98 35.32 36.01 34.89 31.94 32.23 30.02 26.95 31.64 31.54 31.63 30.00 30.00 29.73 28.17 25.92 24.17 22.83 27.22 33.97 33.35 34.25 34.48 33.81 33.71 33.72 32.70
41.50 41.67 48.15 46.09 37.60 35.79 37.67 37.39 37.20 35.62 36.24 36.18 35.33 36.22 34.37 33.03 31.59 33.11 33.91 37.92 35.72 35.68 33.25 33.25 29.64 27.02 30.55 29.77 28.56 28.30 28.88 30.96 30.92 30.55 26.31 26.15 28.99 31.96 32.03 32.20 33.34 32.97 34.20 32.53 31.43
42.42 37.20 42.08 41.57 38.77 37.67 35.23 37.37 36.57 37.74 36.77 36.92 35.93 35.34 32.76 31.81 33.24 32.23 33.05 37.66 35.70 36.44 41.91 39.23 31.09 31.47 30.95 34.34 32.97 27.28 28.44 29.80 31.94 27.98 29.38 29.65 32.06 37.02 35.93 33.19 33.34 32.53 33.61 31.49 29.79
42.02 38.63 38.56 36.06 38.62 35.59 36.98 36.94 36.48 37.28 35.88 36.46 34.37 35.61 34.99 32.02 31.14 31.83 33.50 34.90 35.64 38.83 38.22 37.24 30.31 30.61 33.31 34.61 34.99 33.94 33.64 34.36 29.96 31.89 29.11 32.62 32.97 36.91 39.84 37.21 35.24 34.52 31.93 29.99 28.68
43.38 42.88 39.52 40.09 37.07 34.17 37.73 36.96 37.75 38.25 37.44 35.38 34.45 36.36 35.02 33.71 37.27 35.54 36.20 34.69 36.90 34.50 35.17 35.49 31.74 30.56 30.06 32.34 32.34 30.68 32.64 33.53 33.66 34.33 34.42 34.69 33.63 40.75 35.70 33.31 32.75 32.59 30.27 28.75 27.99
44.04 44.33 43.72 41.27 36.08 38.05 37.34 38.32 38.85 39.70 40.74 38.54 37.05 35.57 34.37 37.36 40.75 42.35 43.05 42.72 42.02 38.77 33.69 31.53 32.18 30.37 29.65 30.91 31.15 29.30 32.83 33.58 32.06 32.40 33.63 30.76 35.58 37.78 32.74 32.99 32.35 29.26 29.11 27.90 26.84
MSLP
1019.31 1018.99 1018.74 1018.47 1018.18 1017.87 1017.76 1017.66 1017.61 1017.55 1017.49 1017.48 1017.51 1017.43 1017.26 1017.01 1016.59 1016.51 1016.79 1017.10 1016.40 1015.63 1015.40 1015.32 1015.31 1015.45 1015.69 1016.73 1017.39 1017.80 1019.10 1020.31 1020.24 1020.30 1020.06 1020.14 1020.39 1020.61 1020.91 1021.36 1021.84 1022.21 1022.53 1022.98 1023.43
1019.36 1019.08 1018.87 1018.59 1018.30 1018.01 1017.81 1017.63 1017.57 1017.53 1017.48 1017.47 1017.45 1017.38 1017.26 1017.09 1016.94 1017.00 1016.97 1016.50 1015.92 1015.47 1015.43 1015.53 1015.73 1015.88 1016.82 1017.55 1018.06 1018.48 1019.58 1019.95 1019.93 1019.92 1020.04 1020.15 1020.33 1020.63 1021.13 1021.35 1021.88 1022.40 1022.94 1023.27 1023.48
1019.45 1019.13 1018.84 1018.57 1018.34 1018.15 1017.93 1017.72 1017.60 1017.55 1017.47 1017.41 1017.32 1017.18 1017.14 1017.09 1017.13 1017.19 1016.74 1016.29 1015.75 1015.43 1015.46 1015.72 1015.97 1016.36 1017.57 1018.17 1018.95 1019.15 1019.79 1020.00 1019.98 1019.93 1020.01 1020.11 1020.41 1020.67 1021.12 1021.37 1021.23 1021.71 1022.21 1022.93 1023.45
1019.49 1019.23 1018.95 1018.68 1018.45 1018.25 1018.03 1017.77 1017.60 1017.52 1017.41 1017.33 1017.21 1017.06 1017.00 1017.07 1017.69 1017.10 1016.74 1016.32 1015.93 1015.52 1015.59 1016.09 1016.47 1017.28 1018.33 1018.97 1019.33 1019.70 1020.01 1019.88 1019.82 1019.81 1019.94 1020.20 1020.46 1020.76 1021.06 1020.91 1021.15 1021.45 1021.94 1022.85 1023.33
1019.70 1019.36 1019.06 1018.70 1018.40 1018.19 1017.99 1017.75 1017.52 1017.39 1017.27 1017.12 1016.99 1016.91 1017.06 1017.39 1017.69 1017.06 1016.82 1016.40 1016.05 1015.94 1016.33 1016.57 1017.12 1017.87 1018.78 1019.28 1019.54 1019.76 1020.00 1019.92 1019.88 1019.96 1020.13 1020.34 1020.54 1020.75 1020.75 1021.04 1021.45 1021.93 1022.27 1022.67 1023.08
1019.72 1019.38 1018.99 1018.62 1018.34 1018.08 1017.84 1017.63 1017.46 1017.33 1017.16 1017.00 1016.88 1016.75 1016.98 1017.65 1017.26 1017.24 1017.03 1016.60 1016.56 1016.53 1016.91 1016.92 1017.50 1017.82 1018.82 1019.48 1019.77 1020.00 1020.01 1020.01 1020.04 1020.13 1020.19 1020.41 1020.54 1020.87 1020.65 1021.15 1021.69 1021.99 1022.50 1022.99 1023.18
1019.73 1019.29 1018.94 1018.64 1018.30 1018.01 1017.72 1017.47 1017.35 1017.23 1017.09 1016.90 1016.76 1016.65 1017.20 1017.65 1017.27 1017.21 1017.12 1017.03 1017.01 1016.93 1017.16 1017.40 1017.52 1017.87 1018.83 1019.70 1020.07 1020.20 1020.26 1020.21 1020.21 1020.32 1020.41 1020.59 1020.74 1020.52 1020.68 1021.40 1021.86 1022.20 1022.46 1022.76 1023.10
1019.65 1019.25 1018.77 1018.37 1018.10 1017.89 1017.66 1017.49 1017.25 1017.08 1016.89 1016.72 1016.67 1016.72 1017.24 1017.04 1017.18 1017.27 1017.20 1017.14 1017.16 1016.97 1017.17 1017.47 1017.58 1018.31 1019.26 1019.84 1020.32 1020.77 1020.94 1021.01 1020.44 1020.53 1020.61 1020.82 1020.52 1020.22 1020.74 1021.30 1021.70 1022.11 1022.41 1022.54 1022.76
1019.66 1019.22 1018.81 1018.41 1018.04 1017.73 1017.48 1017.25 1017.10 1016.93 1016.75 1016.61 1016.67 1016.80 1017.34 1016.98 1017.28 1017.58 1017.55 1017.56 1017.37 1017.29 1017.52 1017.61 1018.07 1019.52 1019.99 1020.49 1021.15 1021.61 1021.81 1021.80 1021.00 1020.65 1020.77 1020.90 1020.55 1020.25 1020.71 1021.21 1021.43 1021.76 1022.04 1022.53 1022.83
1019.72 1019.33 1018.81 1018.28 1017.87 1017.53 1017.23 1017.09 1016.95 1016.76 1016.76 1016.72 1017.14 1017.52 1017.49 1018.07 1017.90 1017.79 1017.61 1017.58 1017.69 1017.63 1017.83 1018.34 1019.27 1020.30 1021.07 1021.16 1022.07 1022.38 1022.44 1022.10 1021.86 1021.06 1020.96 1020.92 1020.15 1020.05 1020.38 1020.89 1020.91 1021.28 1021.79 1022.44 1022.79
1019.87 1019.39 1018.84 1018.35 1017.95 1017.50 1017.09 1017.14 1017.87 1017.98 1017.91 1018.40 1018.41 1018.25 1018.22 1018.20 1018.11 1017.96 1017.94 1017.89 1018.02 1018.54 1019.40 1019.76 1020.36 1021.31 1021.58 1021.76 1022.01 1022.28 1022.50 1022.51 1021.66 1021.19 1021.14 1020.56 1020.05 1019.29 1019.55 1020.11 1020.53 1020.93 1021.39 1021.73 1022.20
1019.95 1019.37 1018.82 1018.41 1018.08 1017.74 1017.80 1018.93 1019.82 1020.09 1019.45 1018.77 1018.49 1018.42 1018.39 1018.53 1018.40 1018.22 1017.98 1018.42 1018.76 1019.62 1019.89 1020.25 1020.80 1021.05 1021.30 1021.58 1021.90 1022.18 1022.43 1022.39 1021.73 1021.43 1021.57 1020.67 1019.39 1018.81 1018.98 1019.28 1019.69 1020.21 1020.78 1021.12 1021.71
1019.95 1019.33 1018.75 1018.38 1018.04 1018.27 1019.37 1020.25 1020.31 1020.18 1019.68 1019.08 1018.64 1018.49 1018.56 1018.65 1018.88 1018.82 1018.67 1019.01 1019.43 1019.87 1020.25 1020.44 1020.78 1020.80 1021.08 1021.45 1021.83 1022.02 1022.34 1022.47 1022.65 1021.92 1021.65 1021.35 1019.62 1018.65 1018.62 1018.96 1019.27 1019.78 1020.28 1020.72 1021.14
1020.10 1019.51 1018.83 1018.17 1018.54 1019.47 1019.98 1020.17 1020.11 1020.17 1020.04 1019.49 1018.79 1018.52 1018.57 1018.67 1019.07 1019.00 1019.07 1019.33 1019.66 1020.11 1020.36 1020.57 1020.60 1020.73 1020.99 1021.37 1021.79 1021.96 1021.99 1022.38 1022.58 1022.70 1022.49 1021.75 1020.69 1018.74 1018.46 1018.54 1018.81 1019.14 1019.70 1020.12 1020.75
1020.15 1019.62 1019.09 1018.33 1019.19 1019.95 1020.33 1020.10 1019.99 1019.94 1020.30 1019.70 1018.84 1018.46 1018.63 1019.07 1019.46 1019.19 1019.38 1019.13 1019.71 1020.20 1020.68 1020.63 1020.66 1020.79 1021.00 1021.23 1021.62 1021.76 1021.94 1022.31 1022.55 1022.80 1022.98 1022.25 1021.95 1018.50 1018.62 1018.48 1018.25 1018.48 1018.91 1019.37 1019.94
1020.29 1019.73 1019.16 1019.29 1019.77 1020.45 1020.26 1020.11 1020.05 1020.22 1019.83 1019.46 1019.05 1019.01 1019.08 1019.26 1019.52 1019.52 1019.56 1019.63 1020.07 1020.35 1020.63 1020.76 1020.79 1020.83 1020.88 1021.10 1021.48 1021.66 1021.93 1022.41 1022.91 1023.03 1022.96 1022.20 1021.90 1018.73 1018.32 1017.71 1017.59 1017.78 1018.41 1019.01 1019.76
1020.49 1020.00 1019.44 1019.92 1020.65 1020.42 1020.25 1020.18 1020.41 1020.51 1020.04 1019.83 1019.58 1019.59 1019.83 1019.91 1019.89 1020.05 1020.21 1020.43 1020.84 1021.06 1021.41 1021.16 1020.97 1020.93 1021.01 1021.24 1021.65 1021.98 1022.41 1022.86 1023.13 1023.05 1022.66 1022.17 1021.81 1018.25 1017.17 1017.08 1017.32 1017.63 1018.08 1018.68 1019.41
1020.44 1020.04 1020.29 1020.53 1020.58 1020.39 1020.33 1020.36 1020.50 1020.23 1019.93 1019.88 1019.93 1019.92 1020.20 1020.33 1020.42 1020.47 1020.67 1021.03 1021.22 1021.46 1022.05 1022.13 1021.22 1021.23 1021.29 1021.57 1022.10 1022.73 1023.19 1023.85 1024.12 1023.97 1023.08 1022.11 1020.58 1017.37 1016.77 1016.79 1016.91 1017.32 1017.75 1018.29 1019.15
1020.33 1020.46 1020.69 1020.85 1020.59 1020.37 1020.42 1020.89 1020.49 1020.28 1020.17 1020.17 1020.13 1020.27 1020.37 1020.53 1020.83 1020.75 1020.91 1021.20 1021.21 1021.45 1021.94 1022.29 1021.74 1021.45 1021.54 1021.72 1022.17 1023.06 1023.53 1023.69 1023.98 1024.18 1023.88 1021.19 1019.52 1017.39 1016.68 1016.90 1017.21 1017.70 1018.23 1018.77 1019.45
1021.15 1021.12 1021.30 1020.94 1020.72 1020.77 1020.95 1021.20 1020.73 1020.41 1020.41 1020.39 1020.52 1020.56 1020.74 1020.76 1021.02 1021.12 1021.00 1020.93 1021.19 1021.46 1021.67 1022.21 1022.30 1021.71 1021.91 1022.13 1022.65 1022.91 1023.44 1024.04 1024.47 1024.43 1023.39 1020.63 1019.68 1017.77 1016.88 1016.87 1017.13 1017.69 1018.20 1018.81 1019.38
1021.40 1021.66 1021.30 1021.02 1020.80 1020.96 1021.74 1021.45 1020.85 1020.61 1020.66 1020.86 1020.84 1020.94 1021.00 1021.02 1021.16 1021.35 1021.05 1020.89 1021.02 1021.73 1021.96 1022.39 1022.86 1022.48 1022.37 1022.18 1022.28 1023.30 1023.51 1023.93 1024.25 1023.91 1023.26 1021.44 1017.79 1016.39 1016.29 1016.31 1016.81 1017.49 1018.15 1018.97 1019.42
1022.21 1022.29 1021.58 1021.01 1021.61 1022.17 1022.18 1021.65 1021.20 1020.85 1020.93 1020.98 1021.02 1021.05 1021.01 1021.04 1021.30 1021.44 1021.03 1020.61 1020.63 1021.15 1022.07 1022.29 1022.89 1022.89 1021.92 1021.64 1021.86 1022.20 1022.46 1022.85 1023.36 1022.89 1022.56 1021.48 1016.91 1015.86 1016.13 1016.58 1017.07 1017.73 1018.54 1019.21 1019.82
1023.63 1022.93 1021.72 1021.59 1022.46 1022.67 1022.08 1021.63 1021.22 1021.14 1021.06 1021.13 1021.10 1021.14 1021.23 1021.39 1021.57 1021.01 1020.80 1020.34 1020.80 1021.16 1021.37 1022.19 1022.84 1022.78 1021.72 1021.93 1022.00 1022.06 1021.85 1021.58 1021.57 1021.59 1020.71 1020.42 1016.91 1015.96 1016.39 1016.77 1017.00 1017.73 1018.64 1019.28 1019.80
1023.95 1023.89 1022.78 1022.66 1022.94 1022.60 1022.51 1022.00 1021.46 1020.98 1021.02 1021.04 1021.01 1021.09 1021.37 1021.38 1021.25 1021.08 1020.87 1020.47 1020.88 1021.08 1021.10 1021.49 1022.28 1022.02 1021.51 1020.49 1020.55 1021.27 1021.14 1020.97 1020.99 1020.93 1019.05 1017.93 1016.04 1015.30 1015.96 1016.71 1017.24 1017.92 1018.65 1019.37 1020.14
1024.34 1024.37 1024.37 1024.07 1023.41 1022.96 1022.39 1021.94 1021.80 1021.52 1021.18 1021.01 1021.04 1020.93 1020.96 1021.23 1021.07 1021.07 1020.78 1020.66 1020.85 1021.01 1021.61 1021.87 1022.36 1022.01 1020.82 1020.39 1020.18 1019.69 1019.95 1019.73 1019.85 1018.56 1018.77 1016.21 1015.94 1014.81 1014.07 1015.55 1016.24 1017.01 1018.51 1019.71 1020.49
1024.05 1024.13 1024.45 1023.92 1023.41 1023.31 1022.80 1022.01 1021.29 1020.91 1021.05 1020.92 1021.01 1020.35 1020.52 1020.54 1019.89 1020.00 1020.36 1020.84 1020.93 1021.39 1021.73 1022.44 1022.21 1021.94 1020.03 1019.80 1019.54 1018.59 1018.44 1018.02 1017.54 1016.94 1017.23 1015.97 1015.08 1013.81 1015.07 1015.75 1016.54 1017.40 1018.61 1019.82 1020.68
1024.06 1023.98 1023.79 1023.55 1023.40 1023.21 1022.31 1021.55 1021.03 1020.79 1020.32 1020.15 1020.39 1020.44 1020.23 1019.53 1019.04 1018.83 1019.03 1019.65 1019.88 1020.35 1020.91 1021.93 1022.15 1021.77 1019.93 1019.31 1019.12 1017.87 1015.80 1016.15 1016.53 1016.40 1016.08 1015.75 1014.60 1014.91 1015.75 1016.69 1017.56 1018.52 1019.36 1020.37 1021.24
Wind_Speed
15 14 12 12 11 8 7 6 4 3 4 5 5 6 7 10 6 6 8 5 9 16 10 4 4 4 5 5 5 2 5 2 5 5 2 2 2 1 1 4 1 1 1 3 2
15 14 12 11 10 9 7 6 4 3 3 3 4 5 6 7 3 6 2 15 14 11 3 5 5 5 5 5 4 5 4 5 3 3 2 3 3 5 3 2 3 1 1 2 2
15 14 12 11 10 8 7 6 5 3 2 3 4 5 6 2 3 4 11 16 13 8 3 2 3 4 6 3 6 2 3 3 1 1 3 4 2 4 4 4 6 6 8 6 1
15 13 12 11 9 7 6 4 3 3 3 4 5 6 4 1 2 4 15 14 11 6 3 6 6 5 5 5 4 5 1 0 2 1 2 2 4 3 5 4 2 4 7 5 3
14 12 11 11 9 7 5 4 3 3 4 6 7 6 3 7 2 5 13 11 3 4 7 4 7 3 4 3 2 4 1 1 0 0 1 2 3 4 6 4 5 7 6 6 4
15 13 12 11 9 7 5 5 4 5 6 7 7 2 5 6 2 6 8 4 5 6 6 6 3 3 6 3 4 0 1 1 0 1 2 2 2 1 1 7 7 7 6 5 4
15 14 12 11 9 8 7 6 5 6 6 6 8 3 8 2 1 5 6 2 3 2 3 2 3 4 3 3 3 1 2 3 2 0 2 1 5 7 2 7 7 7 6 6 6
16 15 13 12 10 8 7 6 7 6 8 5 4 3 3 1 2 4 6 1 4 3 4 3 6 7 5 2 5 5 4 4 1 1 1 1 7 3 5 7 9 8 7 7 6
18 17 15 13 10 9 8 6 6 7 5 5 3 4 1 3 5 4 4 3 4 2 6 4 6 4 5 4 4 7 2 3 9 1 1 2 7 4 4 7 8 9 9 8 6
19 17 16 14 12 10 9 3 4 3 5 2 2 4 6 4 5 4 3 3 5 2 4 9 6 5 5 5 1 3 4 4 6 3 1 5 16 10 8 8 11 9 7 7 8
18 17 15 14 12 10 4 3 6 5 10 4 1 2 3 6 2 5 4 3 4 9 5 5 8 3 2 1 1 2 3 5 6 5 5 5 9 17 6 6 8 8 7 8 10
18 17 16 13 10 6 5 6 2 1 4 0 0 2 1 1 4 7 4 4 6 3 3 6 2 2 1 2 2 3 3 5 6 3 3 7 19 13 6 4 5 7 8 9 5
19 19 16 14 4 6 5 3 2 1 4 1 1 1 2 2 1 6 5 2 4 3 3 4 2 1 1 0 4 3 3 3 6 6 3 7 8 5 1 1 3 4 4 5 9
19 18 16 14 6 1 3 3 0 1 6 3 2 3 1 1 1 1 2 2 3 2 2 2 1 1 1 1 3 5 3 2 6 4 4 4 7 5 3 5 4 5 6 6 6
20 17 13 12 5 4 2 2 1 3 4 1 3 1 2 2 2 3 2 3 3 2 2 2 2 1 1 1 3 7 1 3 1 1 3 2 1 7 4 5 7 7 8 7 7
19 16 9 5 4 2 3 2 2 8 5 2 2 4 3 4 4 6 4 7 1 3 2 2 1 2 2 1 3 5 2 3 3 2 1 1 3 6 4 6 3 3 4 5 5
18 12 6 1 0 3 1 3 7 5 2 2 2 4 2 4 4 5 4 5 2 4 5 5 1 1 1 2 1 6 5 5 5 4 4 1 1 11 6 5 4 5 3 2 4
16 6 4 2 2 2 2 6 1 1 4 0 1 2 2 3 1 5 2 2 1 3 3 2 7 3 1 1 1 3 3 4 5 4 5 4 8 7 4 3 4 2 3 2 1
9 3 3 5 5 2 6 4 6 5 1 0 1 1 2 1 1 3 1 3 5 6 2 2 5 1 1 2 2 2 2 2 1 1 2 5 7 10 4 7 4 5 3 3 1
2 2 2 7 5 4 6 5 3 2 3 1 3 2 3 2 2 2 1 3 3 4 2 4 4 2 1 2 4 2 5 2 2 4 7 5 5 8 5 5 7 7 8 6 4
3 4 3 5 2 6 3 6 4 3 2 2 3 3 5 2 3 3 4 4 5 4 2 4 3 3 1 6 8 2 1 2 1 4 5 6 7 8 8 6 8 9 7 5 4
3 3 4 3 4 1 1 2 3 1 1 3 2 6 6 6 4 5 7 6 8 8 7 5 5 5 11 1 2 3 7 7 4 6 5 2 14 3 5 5 4 6 6 5 4
2 3 3 3 1 2 4 3 3 3 4 4 4 6 2 4 3 6 4 1 8 8 8 7 2 5 7 2 3 5 5 6 1 3 11 7 11 0 1 4 5 8 6 4 4
3 4 5 5 1 4 1 4 4 3 3 4 3 3 3 4 5 3 3 2 6 5 6 8 4 8 10 13 3 5 6 7 10 4 10 15 26 24 10 8 8 7 6 4 3
3 3 3 4 4 1 4 3 3 5 4 4 2 8 8 5 3 5 3 4 3 4 2 2 6 7 15 18 16 20 19 17 15 24 12 26 23 27 24 10 12 10 7 6 3
2 3 0 3 2 2 3 6 8 5 6 6 6 1 8 7 8 4 2 2 5 1 7 2 5 3 13 13 16 21 16 20 23 26 21 28 29 30 8 3 4 7 7 6 5
1 2 2 2 2 3 5 7 5 1 5 2 7 2 4 12 12 12 10 8 10 8 9 8 4 3 11 3 6 12 14 13 6 5 7 9 16 9 4 4 5 5 4 4 3
Wind_Direction
3 3 3 5 8 6 12 11 4 351 335 328 328 331 343 342 339 28 41 276 308 312 329 293 32 17 40 64 38 100 68 140 194 168 173 169 137 328 112 122 86 6 144 120 58
6 7 5 7 13 16 23 20 26 13 352 336 327 328 335 344 59 42 222 332 328 329 22 32 13 27 50 26 25 65 91 187 179 188 154 170 180 176 172 153 186 191 108 151 66
6 6 3 6 11 16 27 31 32 32 15 346 335 324 329 324 75 319 336 342 341 354 92 85 77 60 59 20 1 28 102 171 185 183 165 157 172 174 161 246 222 198 184 181 149
2 3 359 1 4 9 10 25 34 18 6 346 329 318 325 72 66 277 342 340 348 16 65 43 34 54 69 50 344 84 63 72 187 147 144 199 134 228 190 230 291 181 151 154 170
5 2 357 356 358 356 353 345 358 353 347 335 330 328 126 44 336 320 339 340 3 31 54 70 55 94 88 71 52 71 171 63 285 271 274 140 231 249 233 168 127 128 140 158 162
3 360 358 356 352 345 338 330 330 335 332 332 339 332 78 71 291 343 336 348 27 38 24 43 107 112 97 69 73 155 118 349 261 293 306 276 283 21 236 151 158 159 182 176 189
3 2 358 355 352 340 330 323 319 317 325 332 351 99 67 168 350 337 7 26 351 36 73 49 129 93 118 96 325 68 25 349 357 309 268 40 264 234 165 169 183 206 203 201 220
2 360 357 355 351 336 322 308 305 308 316 319 328 81 106 181 194 20 346 24 3 39 94 24 84 98 60 149 29 47 51 7 269 0 268 128 283 261 161 171 214 219 220 221 222
1 357 356 351 344 335 324 307 296 305 296 319 63 94 95 339 31 315 33 352 315 51 38 78 66 81 33 61 25 12 331 333 317 353 309 163 268 271 169 199 236 225 225 230 239
358 353 352 349 341 335 319 268 308 20 357 37 56 48 9 318 307 338 333 31 51 351 22 37 48 65 33 42 330 313 334 307 252 283 246 247 261 254 226 209 233 230 222 228 237
354 349 349 347 337 344 21 26 22 355 41 87 156 141 308 295 277 0 1 7 24 50 36 6 61 44 261 178 135 208 226 250 258 274 308 244 265 277 243 217 239 237 224 224 232
350 349 346 343 334 5 60 77 92 169 71 348 265 319 270 4 11 337 15 63 55 58 337 22 68 221 192 163 238 237 268 278 277 274 252 305 287 275 248 229 206 218 220 222 214
349 349 342 338 321 39 70 81 327 268 105 341 38 38 303 29 127 319 30 67 80 62 31 135 164 114 172 213 5 282 219 277 262 320 255 308 288 326 90 273 221 227 232 216 215
347 344 342 330 48 281 50 301 271 306 72 301 344 350 359 83 32 331 11 108 40 132 160 193 143 94 124 280 112 308 194 274 289 359 296 19 288 302 301 275 243 237 217 224 213
346 344 346 23 141 57 315 284 233 63 17 282 313 305 355 82 292 352 356 36 130 157 114 274 177 134 225 203 158 244 346 251 217 200 359 349 5 270 0 277 249 236 227 224 213
343 340 341 18 50 345 328 325 46 42 268 356 310 335 352 21 351 320 32 40 94 117 6 264 307 179 207 216 190 305 353 71 59 99 340 190 131 274 219 226 257 205 212 234 208
339 340 36 31 34 316 337 43 36 124 359 318 325 24 353 316 348 33 21 14 63 15 4 338 243 259 178 13 45 18 19 335 349 3 240 236 243 252 248 225 224 199 165 61 190
338 358 20 61 321 341 45 49 91 260 236 9 315 306 270 3 326 336 24 0 193 88 95 47 324 174 165 104 189 50 121 147 290 291 286 314 234 250 215 223 218 168 142 99 115
335 2 40 344 337 21 71 53 217 200 178 251 327 352 302 304 257 1 228 219 211 181 169 141 277 120 73 151 127 155 180 147 203 244 335 241 284 286 219 249 244 237 201 149 210
38 37 1 314 345 42 73 233 233 199 144 119 204 187 257 271 331 3 258 197 200 185 163 190 296 183 148 105 30 167 156 83 33 299 287 266 271 247 271 248 219 216 202 183 155
38 39 272 330 35 50 171 230 265 228 176 179 224 245 223 240 206 233 240 252 186 165 87 142 134 281 207 199 179 132 228 75 141 182 223 285 259 213 224 224 201 211 188 167 124
26 351 320 344 44 46 196 242 323 242 124 245 216 211 206 189 226 236 229 231 173 154 171 198 154 243 233 153 139 177 198 165 169 225 240 241 270 317 236 266 237 199 165 140 116
21 274 321 61 114 313 289 267 238 207 222 196 242 209 174 222 245 198 221 260 165 165 168 186 204 320 322 45 22 212 206 217 268 45 231 260 265 72 299 251 217 178 186 157 124
45 341 328 45 160 149 332 285 288 205 250 193 228 138 159 236 222 269 257 274 185 213 165 154 192 197 248 259 140 195 210 216 210 217 262 237 271 276 244 230 215 206 178 164 120
55 262 162 303 321 235 166 184 253 277 227 208 234 217 182 220 218 226 231 293 187 216 176 166 246 242 250 269 279 274 266 250 220 242 240 267 270 272 280 244 224 190 157 164 141
204 179 234 246 203 260 218 232 204 242 182 240 220 204 189 211 206 195 231 170 254 71 157 159 255 273 276 241 241 268 265 255 245 252 257 254 263 270 329 91 147 161 148 162 153
349 1 111 235 188 159 215 231 255 119 248 231 216 210 222 234 217 224 203 216 228 205 198 160 218 202 266 135 323 272 247 230 240 222 219 238 252 299 214 196 154 146 136 140 101